BWA600A TTPP-CYYZ

Flight info

Callsign BWA600A
Flight time N/A
Altitude FL320
Route PERRY UG449 ANADA L467 GESSO Y354 DONQU LETON L451 JAINS FRRAM AR3 GARIC Q129 PYTON WOZEE LINNG3
Aircraft B738/M-SDE2E3FGHIRWXY/LB1

Departure

Time 2026-05-08 19:56
Airport Piarco International Airport (TTPP)

Arrival

Time N/A
Airport Toronto Pearson International Airport (CYYZ)
Time Latitude Longitude Altitude Speed Heading
2026-05-08 19:27 10.59994 -61.33807 73 ft 0 kts 291°
2026-05-08 19:46 10.59991 -61.33801 72 ft 2 kts 316°
2026-05-08 19:46 10.59975 -61.33787 72 ft 1 kts 301°
2026-05-08 19:47 10.59973 -61.33776 72 ft 2 kts 264°
2026-05-08 19:47 10.59976 -61.33761 72 ft 2 kts 248°
2026-05-08 19:47 10.59983 -61.33748 72 ft 2 kts 231°
2026-05-08 19:47 10.59994 -61.33738 72 ft 2 kts 212°
2026-05-08 19:48 10.60008 -61.33732 72 ft 2 kts 193°
2026-05-08 19:48 10.60019 -61.33730 72 ft 0 kts 180°
2026-05-08 19:48 10.60025 -61.33731 72 ft 0 kts 177°
2026-05-08 19:51 10.60023 -61.33731 72 ft 1 kts 177°
2026-05-08 19:51 10.59991 -61.33729 72 ft 8 kts 177°
2026-05-08 19:52 10.59916 -61.33727 72 ft 14 kts 181°
2026-05-08 19:52 10.59796 -61.33732 70 ft 19 kts 179°
2026-05-08 19:52 10.59703 -61.33787 69 ft 17 kts 269°
2026-05-08 19:52 10.59702 -61.33908 68 ft 16 kts 268°
2026-05-08 19:53 10.59702 -61.34016 68 ft 14 kts 272°
2026-05-08 19:53 10.59703 -61.34111 68 ft 13 kts 271°
2026-05-08 19:53 10.59704 -61.34205 68 ft 15 kts 271°
2026-05-08 19:53 10.59704 -61.34325 66 ft 19 kts 268°
2026-05-08 19:54 10.59700 -61.34463 65 ft 19 kts 269°
2026-05-08 19:54 10.59617 -61.34534 64 ft 17 kts 184°
2026-05-08 19:54 10.59537 -61.34531 64 ft 7 kts 134°
2026-05-08 19:54 10.59533 -61.34489 65 ft 7 kts 88°
2026-05-08 19:55 10.59537 -61.34290 66 ft 59 kts 90°
2026-05-08 19:55 10.59537 -61.33643 72 ft 122 kts 91°
2026-05-08 19:55 10.59531 -61.32594 150 ft 168 kts 93°
2026-05-08 19:55 10.59509 -61.31332 546 ft 191 kts 91°
2026-05-08 19:56 10.59547 -61.29939 1189 ft 202 kts 88°
2026-05-08 19:56 10.59597 -61.28542 1930 ft 203 kts 88°
2026-05-08 19:56 10.59619 -61.27048 2296 ft 222 kts 88°
2026-05-08 19:56 10.59637 -61.25473 2960 ft 225 kts 88°
2026-05-08 19:57 10.59660 -61.23906 3657 ft 226 kts 88°
2026-05-08 19:57 10.59681 -61.22303 4288 ft 231 kts 88°
2026-05-08 19:57 10.59783 -61.20660 4914 ft 235 kts 75°
2026-05-08 19:57 10.60493 -61.19160 5439 ft 244 kts 51°
2026-05-08 19:58 10.61862 -61.18066 5769 ft 262 kts 22°
2026-05-08 19:58 10.63692 -61.17791 6225 ft 275 kts 354°
2026-05-08 19:58 10.65506 -61.18407 6871 ft 280 kts 332°
2026-05-08 19:58 10.67136 -61.19500 7520 ft 284 kts 325°
2026-05-08 19:59 10.68716 -61.20708 8154 ft 287 kts 324°
2026-05-08 19:59 10.70326 -61.21934 8784 ft 289 kts 325°
2026-05-08 19:59 10.71957 -61.23138 9408 ft 292 kts 326°
2026-05-08 19:59 10.73613 -61.24335 10070 ft 294 kts 326°
2026-05-08 20:00 10.75321 -61.25557 10460 ft 307 kts 327°
2026-05-08 20:00 10.77107 -61.26833 10781 ft 321 kts 326°
2026-05-08 20:00 10.78972 -61.28167 11083 ft 335 kts 326°
2026-05-08 20:00 10.80917 -61.29561 11352 ft 349 kts 326°
2026-05-08 20:01 10.82957 -61.31024 11569 ft 364 kts 326°
2026-05-08 20:01 10.85068 -61.32538 11789 ft 378 kts 326°
2026-05-08 20:01 10.87264 -61.34115 11951 ft 393 kts 326°
2026-05-08 20:01 10.89523 -61.35738 12291 ft 400 kts 326°
2026-05-08 20:02 10.91796 -61.37374 12875 ft 401 kts 326°
2026-05-08 20:02 10.94081 -61.39019 13432 ft 403 kts 326°
2026-05-08 20:02 10.96386 -61.40678 13910 ft 407 kts 326°
2026-05-08 20:02 10.98715 -61.42354 14431 ft 410 kts 326°
2026-05-08 20:03 11.01060 -61.44041 14942 ft 413 kts 325°
2026-05-08 20:03 11.03418 -61.45737 15437 ft 417 kts 325°
2026-05-08 20:03 11.05792 -61.47446 15958 ft 419 kts 325°
2026-05-08 20:03 11.08167 -61.49156 16492 ft 421 kts 325°
2026-05-08 20:04 11.10565 -61.50883 16937 ft 424 kts 324°
2026-05-08 20:04 11.12980 -61.52623 17349 ft 429 kts 324°
2026-05-08 20:04 11.15438 -61.54393 17878 ft 430 kts 324°
2026-05-08 20:04 11.17882 -61.56154 18340 ft 432 kts 324°
2026-05-08 20:05 11.20352 -61.57935 18701 ft 437 kts 324°
2026-05-08 20:05 11.22846 -61.59733 19189 ft 439 kts 324°
2026-05-08 20:05 11.25334 -61.61526 19671 ft 440 kts 324°
2026-05-08 20:05 11.27842 -61.63333 20120 ft 443 kts 323°
2026-05-08 20:06 11.30352 -61.65141 20588 ft 444 kts 323°
2026-05-08 20:06 11.32887 -61.66969 21083 ft 445 kts 323°
2026-05-08 20:06 11.35427 -61.68801 21464 ft 449 kts 323°
2026-05-08 20:06 11.37984 -61.70645 21860 ft 452 kts 323°
2026-05-08 20:07 11.40548 -61.72495 22380 ft 452 kts 323°
2026-05-08 20:07 11.43123 -61.74355 22694 ft 456 kts 323°
2026-05-08 20:07 11.45715 -61.76227 23074 ft 459 kts 323°
2026-05-08 20:07 11.48318 -61.78107 23488 ft 461 kts 322°
2026-05-08 20:08 11.50964 -61.80020 23846 ft 464 kts 322°
2026-05-08 20:08 11.53599 -61.81926 24280 ft 465 kts 322°
2026-05-08 20:08 11.56247 -61.83841 24605 ft 468 kts 322°
2026-05-08 20:08 11.58909 -61.85766 24998 ft 470 kts 322°
2026-05-08 20:09 11.61583 -61.87701 25348 ft 472 kts 322°
2026-05-08 20:09 11.64254 -61.89633 25852 ft 471 kts 322°
2026-05-08 20:09 11.66909 -61.91554 26471 ft 466 kts 322°
2026-05-08 20:09 11.69571 -61.93479 26988 ft 465 kts 322°
2026-05-08 20:10 11.72207 -61.95387 27451 ft 464 kts 321°
2026-05-08 20:10 11.74842 -61.97295 27831 ft 465 kts 321°
2026-05-08 20:10 11.77472 -61.99200 28296 ft 463 kts 321°
2026-05-08 20:10 11.80099 -62.01104 28738 ft 462 kts 321°
2026-05-08 20:11 11.82719 -62.03003 29172 ft 461 kts 321°
2026-05-08 20:11 11.85330 -62.04895 29634 ft 459 kts 321°
2026-05-08 20:11 11.87943 -62.06790 30102 ft 457 kts 321°
2026-05-08 20:11 11.90532 -62.08668 30451 ft 457 kts 321°
2026-05-08 20:12 11.93121 -62.10547 30811 ft 457 kts 322°
2026-05-08 20:12 11.95712 -62.12428 31186 ft 456 kts 322°
2026-05-08 20:12 11.98296 -62.14303 31556 ft 455 kts 322°
2026-05-08 20:12 12.00859 -62.16164 31864 ft 455 kts 322°
2026-05-08 20:13 12.06041 -62.19929 31895 ft 454 kts 322°
2026-05-08 20:13 12.11161 -62.23648 31903 ft 452 kts 322°
2026-05-08 20:14 12.16288 -62.27376 31904 ft 453 kts 322°
2026-05-08 20:14 12.21420 -62.31109 31914 ft 452 kts 322°
2026-05-08 20:15 12.26549 -62.34842 31914 ft 450 kts 323°
2026-05-08 20:15 12.31660 -62.38563 31905 ft 451 kts 323°
2026-05-08 20:16 12.36763 -62.42281 31902 ft 449 kts 323°
2026-05-08 20:16 12.41869 -62.46003 31906 ft 449 kts 323°
2026-05-08 20:17 12.46966 -62.49718 31903 ft 448 kts 323°
2026-05-08 20:17 12.52035 -62.53416 31905 ft 448 kts 324°
2026-05-08 20:18 12.57106 -62.57117 31906 ft 447 kts 324°
2026-05-08 20:18 12.62195 -62.60832 31907 ft 447 kts 324°
2026-05-08 20:19 12.67256 -62.64530 31910 ft 446 kts 324°
2026-05-08 20:19 12.72312 -62.68226 31911 ft 446 kts 324°
2026-05-08 20:20 12.77377 -62.71932 31911 ft 446 kts 324°
2026-05-08 20:20 12.82440 -62.75636 31913 ft 448 kts 325°
2026-05-08 20:21 12.87508 -62.79345 31913 ft 446 kts 325°
2026-05-08 20:21 12.92566 -62.83048 31914 ft 447 kts 325°
2026-05-08 20:22 12.97642 -62.86767 31916 ft 447 kts 326°
2026-05-08 20:22 13.02711 -62.90482 31916 ft 448 kts 326°
2026-05-08 20:23 13.07771 -62.94194 31915 ft 446 kts 326°
2026-05-08 20:23 13.12836 -62.97911 31918 ft 448 kts 326°
2026-05-08 20:24 13.17908 -63.01636 31919 ft 448 kts 326°
2026-05-08 20:24 13.22972 -63.05357 31916 ft 446 kts 326°
2026-05-08 20:25 13.28064 -63.08980 31914 ft 445 kts 330°
2026-05-08 20:25 13.33385 -63.12249 31911 ft 442 kts 333°
2026-05-08 20:26 13.38727 -63.15408 31906 ft 443 kts 332°
2026-05-08 20:26 13.44059 -63.18589 31908 ft 443 kts 332°
2026-05-08 20:27 13.49405 -63.21817 31905 ft 443 kts 332°
2026-05-08 20:27 13.54705 -63.25041 31908 ft 442 kts 332°
2026-05-08 20:28 13.59996 -63.28272 31910 ft 441 kts 332°
2026-05-08 20:28 13.65270 -63.31498 31911 ft 442 kts 333°
2026-05-08 20:29 13.70583 -63.34750 31913 ft 442 kts 333°
2026-05-08 20:29 13.75869 -63.37986 31913 ft 442 kts 333°
2026-05-08 20:30 13.81161 -63.41229 31914 ft 443 kts 333°
2026-05-08 20:30 13.86472 -63.44488 31916 ft 442 kts 333°
2026-05-08 20:31 13.91752 -63.47728 31917 ft 441 kts 334°
2026-05-08 20:31 13.97026 -63.50965 31918 ft 440 kts 333°
2026-05-08 20:32 14.02279 -63.54193 31919 ft 439 kts 334°
2026-05-08 20:32 14.07565 -63.57440 31918 ft 442 kts 334°
2026-05-08 20:33 14.12832 -63.60678 31921 ft 440 kts 334°
2026-05-08 20:33 14.18091 -63.63915 31920 ft 438 kts 334°
2026-05-08 20:34 14.23351 -63.67157 31922 ft 439 kts 333°
2026-05-08 20:35 14.31244 -63.72021 31924 ft 442 kts 334°
2026-05-08 20:35 14.36508 -63.75271 31923 ft 440 kts 333°
2026-05-08 20:36 14.41792 -63.78533 31924 ft 440 kts 334°
2026-05-08 20:36 14.47045 -63.81779 31929 ft 440 kts 334°
2026-05-08 20:37 14.52317 -63.85035 31925 ft 440 kts 334°
2026-05-08 20:37 14.57566 -63.88282 31928 ft 440 kts 333°
2026-05-08 20:38 14.62831 -63.91537 31931 ft 440 kts 333°
2026-05-08 20:38 14.68087 -63.94790 31930 ft 439 kts 334°
2026-05-08 20:39 14.73326 -63.98035 31934 ft 440 kts 334°
2026-05-08 20:39 14.78591 -64.01297 31934 ft 439 kts 334°
2026-05-08 20:40 14.83854 -64.04559 31936 ft 441 kts 333°
2026-05-08 20:40 14.89118 -64.07826 31932 ft 441 kts 333°
2026-05-08 20:41 14.94363 -64.11084 31929 ft 439 kts 333°
2026-05-08 20:41 14.99650 -64.14367 31926 ft 444 kts 333°
2026-05-08 20:42 15.04906 -64.17681 31920 ft 442 kts 333°
2026-05-08 20:42 15.10148 -64.21046 31918 ft 443 kts 332°
2026-05-08 20:43 15.15394 -64.24421 31920 ft 443 kts 332°
2026-05-08 20:43 15.20628 -64.27786 31922 ft 443 kts 332°
2026-05-08 20:44 15.25874 -64.31154 31924 ft 444 kts 332°
2026-05-08 20:44 15.31116 -64.34522 31921 ft 443 kts 332°
2026-05-08 20:45 15.36372 -64.37897 31926 ft 443 kts 332°
2026-05-08 20:45 15.41613 -64.41265 31928 ft 443 kts 332°
2026-05-08 20:46 15.46849 -64.44631 31928 ft 444 kts 332°
2026-05-08 20:46 15.52124 -64.48025 31931 ft 444 kts 332°
2026-05-08 20:47 15.57377 -64.51405 31930 ft 445 kts 332°
2026-05-08 20:47 15.62630 -64.54789 31932 ft 444 kts 332°
2026-05-08 20:48 15.67886 -64.58177 31931 ft 444 kts 332°
2026-05-08 20:48 15.73162 -64.61579 31928 ft 446 kts 332°
2026-05-08 20:49 15.78423 -64.64972 31923 ft 444 kts 332°
2026-05-08 20:49 15.83697 -64.68377 31924 ft 446 kts 332°
2026-05-08 20:50 15.88978 -64.71789 31922 ft 446 kts 332°
2026-05-08 20:50 15.94245 -64.75194 31922 ft 445 kts 331°
2026-05-08 20:51 15.99492 -64.78590 31919 ft 445 kts 332°
2026-05-08 20:51 16.04762 -64.82000 31918 ft 446 kts 332°
2026-05-08 20:52 16.10043 -64.85420 31921 ft 446 kts 332°
2026-05-08 20:52 16.15298 -64.88824 31923 ft 447 kts 332°
2026-05-08 20:53 16.20585 -64.92253 31922 ft 448 kts 331°
2026-05-08 20:53 16.25878 -64.95696 31924 ft 446 kts 331°
2026-05-08 20:54 16.31121 -64.99150 31926 ft 446 kts 331°
2026-05-08 20:54 16.36359 -65.02618 31925 ft 447 kts 330°
2026-05-08 20:55 16.41610 -65.06094 31927 ft 446 kts 331°
2026-05-08 20:55 16.46885 -65.09585 31930 ft 448 kts 331°
2026-05-08 20:56 16.52151 -65.13070 31931 ft 447 kts 330°
2026-05-08 20:56 16.57407 -65.16551 31940 ft 447 kts 330°
2026-05-08 20:57 16.62662 -65.20033 31947 ft 446 kts 331°
2026-05-08 20:57 16.67921 -65.23517 31953 ft 448 kts 330°
2026-05-08 20:58 16.73179 -65.27004 31958 ft 448 kts 330°
2026-05-08 20:58 16.78451 -65.30504 31960 ft 448 kts 331°
2026-05-08 20:59 16.83734 -65.34013 31959 ft 448 kts 330°
2026-05-08 20:59 16.88992 -65.37507 31963 ft 448 kts 330°
2026-05-08 21:00 16.94244 -65.41000 31961 ft 448 kts 330°
2026-05-08 21:00 16.99528 -65.44517 31956 ft 449 kts 330°
2026-05-08 21:01 17.04784 -65.48017 31954 ft 448 kts 330°
2026-05-08 21:01 17.10040 -65.51521 31953 ft 447 kts 330°
2026-05-08 21:02 17.15262 -65.55002 31949 ft 448 kts 330°
2026-05-08 21:02 17.20531 -65.58519 31947 ft 448 kts 330°
2026-05-08 21:03 17.25777 -65.62022 31946 ft 448 kts 330°
2026-05-08 21:03 17.31032 -65.65533 31955 ft 448 kts 330°
2026-05-08 21:04 17.36298 -65.69054 31963 ft 448 kts 329°
2026-05-08 21:04 17.41548 -65.72567 31962 ft 448 kts 329°
2026-05-08 21:05 17.46786 -65.76075 31961 ft 447 kts 329°
2026-05-08 21:05 17.52022 -65.79620 31960 ft 448 kts 328°
2026-05-08 21:06 17.57192 -65.83295 31960 ft 448 kts 328°
2026-05-08 21:06 17.62326 -65.86996 31963 ft 448 kts 328°
2026-05-08 21:07 17.67451 -65.90684 31960 ft 447 kts 328°
2026-05-08 21:07 17.72594 -65.94374 31957 ft 448 kts 328°
2026-05-08 21:08 17.77701 -65.98032 31956 ft 447 kts 328°
2026-05-08 21:08 17.82825 -66.01701 31953 ft 446 kts 328°
2026-05-08 21:09 17.87948 -66.05371 31960 ft 446 kts 328°
2026-05-08 21:09 17.93086 -66.09052 31959 ft 447 kts 328°
2026-05-08 21:10 17.98221 -66.12735 31964 ft 447 kts 328°
2026-05-08 21:10 18.03344 -66.16413 31973 ft 446 kts 328°
2026-05-08 21:11 18.08460 -66.20087 31986 ft 446 kts 328°
2026-05-08 21:11 18.13586 -66.23771 32003 ft 447 kts 327°
2026-05-08 21:12 18.18689 -66.27442 32021 ft 446 kts 327°
2026-05-08 21:12 18.23814 -66.31132 32031 ft 447 kts 327°
2026-05-08 21:13 18.28944 -66.34827 32030 ft 447 kts 327°
2026-05-08 21:13 18.34057 -66.38513 32010 ft 447 kts 327°
2026-05-08 21:14 18.39176 -66.42206 31992 ft 446 kts 327°
2026-05-08 21:14 18.44298 -66.45904 31976 ft 447 kts 327°
2026-05-08 21:15 18.49412 -66.49599 31966 ft 447 kts 327°
2026-05-08 21:15 18.54541 -66.53307 31963 ft 447 kts 327°
2026-05-08 21:16 18.59652 -66.57006 31965 ft 446 kts 327°
2026-05-08 21:16 18.64790 -66.60726 31966 ft 447 kts 327°
2026-05-08 21:17 18.69902 -66.64430 31965 ft 447 kts 327°
2026-05-08 21:17 18.75023 -66.68142 31966 ft 447 kts 327°
2026-05-08 21:18 18.80158 -66.71868 31965 ft 447 kts 327°
2026-05-08 21:18 18.85279 -66.75588 31966 ft 447 kts 327°
2026-05-08 21:19 18.90404 -66.79312 31965 ft 447 kts 327°
2026-05-08 21:19 18.95516 -66.83031 31966 ft 446 kts 327°
2026-05-08 21:20 19.00639 -66.86759 31967 ft 447 kts 327°
2026-05-08 21:20 19.05761 -66.90490 31968 ft 447 kts 327°
2026-05-08 21:21 19.10869 -66.94214 31970 ft 447 kts 327°
2026-05-08 21:21 19.15993 -66.97953 31970 ft 446 kts 327°
2026-05-08 21:22 19.21080 -67.01666 31969 ft 445 kts 327°
2026-05-08 21:22 19.26167 -67.05383 31968 ft 446 kts 327°
2026-05-08 21:23 19.31246 -67.09097 31970 ft 445 kts 327°
2026-05-08 21:23 19.36365 -67.12843 31970 ft 445 kts 327°
2026-05-08 21:24 19.41461 -67.16576 31971 ft 447 kts 327°
2026-05-08 21:24 19.46569 -67.20319 31971 ft 445 kts 327°
2026-05-08 21:25 19.51672 -67.24062 31975 ft 445 kts 327°
2026-05-08 21:25 19.56757 -67.27794 31973 ft 445 kts 327°
2026-05-08 21:26 19.61847 -67.31533 31976 ft 445 kts 327°
2026-05-08 21:26 19.66925 -67.35266 31980 ft 444 kts 327°
2026-05-08 21:27 19.72019 -67.39014 31981 ft 444 kts 327°
2026-05-08 21:27 19.77093 -67.42750 31980 ft 443 kts 327°
2026-05-08 21:28 19.82156 -67.46482 31981 ft 444 kts 327°
2026-05-08 21:28 19.87249 -67.50238 31983 ft 444 kts 327°
2026-05-08 21:29 19.92315 -67.53978 31980 ft 444 kts 327°
2026-05-08 21:29 19.97375 -67.57716 31986 ft 442 kts 327°
2026-05-08 21:30 20.02424 -67.61449 31983 ft 442 kts 327°
2026-05-08 21:30 20.07485 -67.65193 31988 ft 443 kts 327°
2026-05-08 21:31 20.12542 -67.68937 31989 ft 443 kts 327°
2026-05-08 21:31 20.17600 -67.72684 31993 ft 443 kts 327°
2026-05-08 21:32 20.22684 -67.76454 31993 ft 443 kts 327°
2026-05-08 21:32 20.27734 -67.80203 31992 ft 443 kts 326°
2026-05-08 21:33 20.32785 -67.83954 31995 ft 443 kts 326°
2026-05-08 21:33 20.37849 -67.87720 31997 ft 443 kts 326°
2026-05-08 21:34 20.42922 -67.91494 31999 ft 444 kts 326°
2026-05-08 21:34 20.47990 -67.95268 31995 ft 444 kts 326°
2026-05-08 21:35 20.53053 -67.99041 32002 ft 444 kts 326°
2026-05-08 21:35 20.58142 -68.02838 32007 ft 445 kts 326°
2026-05-08 21:36 20.63219 -68.06627 32010 ft 445 kts 326°
2026-05-08 21:36 20.68282 -68.10410 32011 ft 444 kts 326°
2026-05-08 21:37 20.73309 -68.14246 32011 ft 445 kts 324°
2026-05-08 21:37 20.78146 -68.18392 32010 ft 445 kts 322°
2026-05-08 21:38 20.82907 -68.22622 32009 ft 446 kts 322°
2026-05-08 21:38 20.87691 -68.26848 32008 ft 445 kts 322°
2026-05-08 21:39 20.92502 -68.31062 32009 ft 447 kts 322°
2026-05-08 21:39 20.97313 -68.35257 32010 ft 446 kts 322°
2026-05-08 21:40 21.02122 -68.39445 32010 ft 446 kts 322°
2026-05-08 21:40 21.06929 -68.43631 32011 ft 445 kts 322°
2026-05-08 21:41 21.14137 -68.49915 32012 ft 446 kts 322°
2026-05-08 21:41 21.18953 -68.54117 32013 ft 447 kts 322°
2026-05-08 21:42 21.23761 -68.58316 32012 ft 447 kts 322°
2026-05-08 21:42 21.28591 -68.62540 32012 ft 447 kts 322°
2026-05-08 21:43 21.33410 -68.66756 32012 ft 447 kts 322°
2026-05-08 21:43 21.38222 -68.70970 32011 ft 447 kts 322°
2026-05-08 21:44 21.43060 -68.75212 32011 ft 447 kts 322°
2026-05-08 21:44 21.47863 -68.79425 32011 ft 447 kts 322°
2026-05-08 21:45 21.52686 -68.83661 32015 ft 447 kts 322°
2026-05-08 21:45 21.57490 -68.87882 32021 ft 446 kts 322°
2026-05-08 21:46 21.62313 -68.92124 32023 ft 447 kts 322°
2026-05-08 21:46 21.67127 -68.96363 32025 ft 447 kts 322°
2026-05-08 21:47 21.71924 -69.00590 32026 ft 447 kts 322°
2026-05-08 21:47 21.76751 -69.04848 32027 ft 447 kts 322°
2026-05-08 21:48 21.81552 -69.09086 32029 ft 448 kts 322°
2026-05-08 21:48 21.86372 -69.13344 32028 ft 448 kts 322°
2026-05-08 21:49 21.91191 -69.17605 32027 ft 448 kts 322°
2026-05-08 21:49 21.96007 -69.21869 32028 ft 448 kts 322°
2026-05-08 21:50 22.00824 -69.26137 32025 ft 448 kts 321°
2026-05-08 21:50 22.05624 -69.30393 32026 ft 447 kts 321°
2026-05-08 21:51 22.10442 -69.34669 32027 ft 447 kts 321°
2026-05-08 21:51 22.15242 -69.38934 32030 ft 448 kts 321°
2026-05-08 21:52 22.20046 -69.43204 32032 ft 447 kts 321°
2026-05-08 21:52 22.24832 -69.47465 32032 ft 448 kts 321°
2026-05-08 21:53 22.29654 -69.51760 32032 ft 448 kts 321°
2026-05-08 21:53 22.34447 -69.56034 32032 ft 447 kts 321°
2026-05-08 21:54 22.39235 -69.60307 32029 ft 447 kts 321°
2026-05-08 21:54 22.44047 -69.64605 32025 ft 447 kts 321°
2026-05-08 21:55 22.48597 -69.68672 32024 ft 447 kts 321°
2026-05-08 21:56 22.55801 -69.75120 32024 ft 448 kts 320°
2026-05-08 21:56 22.60588 -69.79410 32023 ft 448 kts 321°
2026-05-08 21:57 22.65379 -69.83707 32025 ft 447 kts 320°
2026-05-08 21:57 22.70181 -69.88018 32026 ft 448 kts 320°
2026-05-08 21:58 22.74971 -69.92322 32027 ft 447 kts 320°
2026-05-08 21:58 22.79756 -69.96627 32028 ft 447 kts 320°
2026-05-08 21:59 22.84563 -70.00954 32027 ft 448 kts 320°
2026-05-08 21:59 22.89352 -70.05271 32029 ft 447 kts 320°
2026-05-08 22:00 22.94140 -70.09589 32027 ft 448 kts 320°
2026-05-08 22:00 22.98932 -70.13916 32030 ft 448 kts 320°
2026-05-08 22:01 23.03741 -70.18262 32028 ft 448 kts 320°
2026-05-08 22:01 23.08523 -70.22588 32026 ft 448 kts 320°
2026-05-08 22:02 23.13308 -70.26921 32026 ft 447 kts 320°
2026-05-08 22:02 23.18107 -70.31271 32026 ft 448 kts 320°
2026-05-08 22:03 23.22877 -70.35599 32026 ft 447 kts 320°
2026-05-08 22:03 23.27648 -70.39931 32026 ft 447 kts 320°
2026-05-08 22:04 23.32414 -70.44263 32025 ft 447 kts 320°
2026-05-08 22:04 23.37201 -70.48618 32024 ft 446 kts 320°
2026-05-08 22:05 23.41955 -70.52948 32023 ft 446 kts 320°
2026-05-08 22:05 23.46708 -70.57281 32026 ft 446 kts 320°
2026-05-08 22:06 23.51491 -70.61645 32025 ft 447 kts 320°
2026-05-08 22:06 23.56238 -70.65981 32025 ft 446 kts 320°
2026-05-08 22:07 23.60986 -70.70321 32027 ft 445 kts 319°
2026-05-08 22:07 23.65723 -70.74657 32024 ft 445 kts 320°
2026-05-08 22:08 23.70468 -70.79004 32024 ft 444 kts 319°
2026-05-08 22:08 23.75201 -70.83344 32026 ft 445 kts 319°
2026-05-08 22:09 23.79926 -70.87681 32025 ft 444 kts 319°
2026-05-08 22:09 23.84674 -70.92043 32017 ft 445 kts 319°
2026-05-08 22:10 23.89392 -70.96382 32012 ft 444 kts 319°
2026-05-08 22:10 23.94119 -71.00734 32009 ft 444 kts 319°
2026-05-08 22:11 23.98838 -71.05082 32010 ft 444 kts 319°
2026-05-08 22:11 24.03577 -71.09453 32012 ft 444 kts 319°
2026-05-08 22:12 24.08286 -71.13801 32010 ft 443 kts 319°
2026-05-08 22:12 24.13000 -71.18157 32014 ft 443 kts 319°
2026-05-08 22:13 24.17728 -71.22532 32015 ft 443 kts 319°
2026-05-08 22:13 24.22425 -71.26881 32019 ft 442 kts 319°
2026-05-08 22:14 24.27122 -71.31236 32014 ft 443 kts 319°
2026-05-08 22:14 24.31825 -71.35600 32012 ft 444 kts 319°
2026-05-08 22:15 24.36544 -71.39983 32022 ft 443 kts 319°
2026-05-08 22:15 24.41239 -71.44350 32018 ft 443 kts 319°
2026-05-08 22:16 24.45168 -71.48005 32021 ft 443 kts 319°
2026-05-08 22:16 24.47514 -71.50190 32025 ft 442 kts 319°